Location: Paderno d�Adda
(45.6667°N, 9.4333°E)
Time: 20:39:48
(UTC+00:00)

Cosmos 1300 Rocket - Pass Details

Date: 19 September 2020
Orbit: 601 x 627 km, 82.5° (Epoch: 27 October)

Event Time Altitude Azimuth Distance (km) Brightness Sun altitude
Rises 18:31:25 0° 175° (S) 2,875 6.8 -12.3°
Reaches altitude 10° 18:33:39 10° 171° (S) 1,978 5.9 -12.7°
Maximum altitude 18:37:55 55° 94° (E) 754 3.6 -13.4°
Drops below altitude 10° 18:42:16 10° 17° (NNE) 2,007 6.2 -14.1°
Sets 18:44:33 0° 14° (NNE) 2,921 7.1 -14.5°
